W1JCN Weather Reports


Display with metric or nautical units.
time (UTC)temp
F
wind
direction
speed
MPH
gust
MPH
rain 1hr
in
rain 24hr
in
rain mn
in
humidity
%
barometer
mb
20260504050241 37 0 0.0 0.0 0.00 0.00 0.00 83 1006.6
20260504044440 36 1 0.0 2.0 0.00 0.00 0.00 80 1006.5
20260504042640 34 319 0.0 1.0 0.00 0.00 0.00 85 1006.5
20260504041740 33 0 0.0 0.0 0.00 0.00 0.00 87 1006.5
20260504040840 32 0 0.0 0.0 0.00 0.00 0.00 87 1006.4
20260504033242 31 319 0.0 1.0 0.00 0.00 0.00 86 1006.3
20260504031440 31 0 0.0 0.0 0.00 0.00 0.00 85 1006.3
20260504030540 31 319 0.0 1.0 0.00 0.00 0.00 84 1006.4
20260504025640 31 0 0.0 0.0 0.00 0.00 0.00 84 1006.3
20260504024740 32 0 0.0 0.0 0.00 0.00 0.00 84 1006.3
20260504023840 32 319 0.0 1.0 0.00 0.00 0.00 83 1006.3
20260504022940 32 319 0.0 3.0 0.00 0.00 0.00 82 1006.4
20260504022040 32 319 0.0 1.0 0.00 0.00 0.00 82 1006.4
20260504020240 33 0 0.0 0.0 0.00 0.00 0.00 81 1006.4
20260504015340 34 0 0.0 0.0 0.00 0.00 0.00 80 1006.3
20260504014440 34 319 0.0 1.0 0.00 0.00 0.00 80 1006.2
20260504013540 35 0 0.0 0.0 0.00 0.00 0.00 78 1006.1
20260504012640 35 0 0.0 0.0 0.00 0.00 0.00 77 1006.0
20260504010840 36 0 0.0 0.0 0.00 0.00 0.00 75 1005.8
20260504005940 37 0 0.0 0.0 0.00 0.00 0.00 73 1005.7
20260504005040 38 0 0.0 0.0 0.00 0.00 0.00 72 1005.7
20260504003240 40 0 0.0 0.0 0.00 0.00 0.00 69 1005.5
20260504002340 41 0 0.0 0.0 0.00 0.00 0.00 66 1005.4
20260504001440 42 0 0.0 0.0 0.00 0.00 0.00 64 1005.3
20260504000540 43 0 0.0 0.0 0.00 0.00 0.00 62 1005.3
20260503235640 44 0 0.0 0.0 0.00 0.00 0.00 59 1005.2
20260503234740 44 0 0.0 0.0 0.00 0.00 0.00 54 1005.1
20260503233840 45 320 0.0 3.0 0.00 0.00 0.00 50 1005.0
20260503232940 45 315 0.0 4.0 0.00 0.00 0.00 48 1005.0
20260503232040 45 314 1.0 9.0 0.00 0.00 0.00 48 1004.9
20260503231140 46 312 1.0 8.0 0.00 0.00 0.00 49 1004.8
20260503230240 46 293 0.0 2.0 0.00 0.00 0.00 50 1004.8
20260503225340 46 269 1.0 6.0 0.00 0.00 0.00 49 1004.7
20260503224440 46 296 2.0 10.0 0.00 0.00 0.00 48 1004.7
20260503223540 46 268 3.0 7.0 0.00 0.00 0.00 50 1004.8
20260503221740 46 262 1.0 6.0 0.00 0.00 0.00 52 1004.8
20260503220840 46 293 2.0 12.0 0.00 0.00 0.00 50 1004.8
20260503215940 46 299 1.0 8.0 0.00 0.00 0.00 51 1004.7
20260503215040 46 320 1.0 12.0 0.00 0.00 0.00 51 1004.6
20260503214140 45 294 2.0 10.0 0.00 0.00 0.00 53 1004.6
20260503213240 45 289 1.0 6.0 0.00 0.00 0.00 53 1004.5
20260503212340 45 306 1.0 11.0 0.00 0.00 0.00 51 1004.5
20260503211440 45 290 3.0 8.0 0.00 0.00 0.00 51 1004.5
20260503205640 46 298 4.0 13.0 0.00 0.00 0.00 51 1004.4
20260503204739 46 277 3.0 13.0 0.00 0.00 0.00 50 1004.5
20260503203840 45 294 3.0 13.0 0.00 0.00 0.00 51 1004.3
20260503202939 46 298 2.0 12.0 0.00 0.00 0.00 47 1004.5
20260503202039 46 298 3.0 14.0 0.00 0.00 0.00 50 1004.5
20260503201140 46 316 2.0 11.0 0.00 0.00 0.00 50 1004.2
20260503195339 46 305 2.0 12.0 0.00 0.00 0.00 48 1004.4
20260503194439 46 314 2.0 13.0 0.00 0.00 0.00 53 1004.4
20260503193539 46 315 2.0 13.0 0.00 0.01 0.00 50 1004.4
20260503192639 46 290 1.0 9.0 0.00 0.01 0.00 47 1004.4
20260503191739 46 291 2.0 9.0 0.00 0.01 0.00 53 1004.5
20260503190839 45 324 3.0 16.0 0.00 0.02 0.00 47 1004.7
20260503185939 45 311 2.0 13.0 0.00 0.02 0.00 49 1004.5
20260503185039 45 306 2.0 11.0 0.00 0.02 0.00 50 1004.5
20260503184139 46 319 2.0 16.0 0.00 0.02 0.00 49 1004.5
20260503182340 47 320 2.0 10.0 0.00 0.02 0.00 43 1004.1
20260503181439 47 321 3.0 16.0 0.00 0.02 0.00 44 1004.2
20260503180539 47 336 1.0 10.0 0.00 0.02 0.00 42 1004.0
20260503175639 47 332 2.0 15.0 0.00 0.02 0.00 47 1003.9
20260503174739 47 313 2.0 14.0 0.00 0.02 0.00 48 1004.0
20260503173839 47 326 2.0 12.0 0.00 0.02 0.00 45 1004.0
20260503172939 47 313 2.0 13.0 0.00 0.02 0.00 47 1004.2
20260503172039 47 321 2.0 16.0 0.00 0.02 0.00 47 1003.9
20260503171139 48 291 1.0 8.0 0.00 0.02 0.00 50 1003.9
20260503170239 47 290 2.0 11.0 0.00 0.02 0.00 52 1003.9
20260503150539 43 327 0.0 5.0 0.00 0.02 0.00 62 1004.6
20260503140239 41 335 0.0 4.0 0.00 0.02 0.00 76 1004.9
20260503130839 38 267 0.0 2.0 0.00 0.02 0.00 86 1005.2
20260503110238 36 319 0.0 9.0 0.00 0.02 0.00 89 1005.0
20260503081138 35 0 0.0 0.0 0.00 0.07 0.00 93 1005.6
20260503080238 35 0 0.0 0.0 0.00 0.07 0.00 93 1005.8
20260503072638 35 0 0.0 0.0 0.00 0.08 0.00 93 1005.8
20260503070838 35 0 0.0 0.0 0.00 0.08 0.00 93 1006.1